Temp
78 80 73 75 75 75 74 74 74 75 75 76 76 76 76 76 76 76 76 76 77 77 77 77 76 75 75 74 74 73 73 72 72 74 74 76 77 78 77 76 76 83 76
79 80 73 75 75 75 75 74 74 75 75 76 75 75 75 76 76 76 76 76 76 77 76 76 75 74 74 73 72 72 72 72 72 73 74 76 76 77 77 76 76 81 76
78 79 78 74 75 74 75 75 75 75 76 75 75 75 76 75 75 75 75 75 76 76 75 75 74 73 73 72 72 72 72 72 72 72 73 83 82 76 77 76 76 76 76
78 79 79 74 74 74 74 75 75 76 76 75 75 76 76 76 75 75 74 74 74 74 74 74 73 72 72 71 71 71 70 70 70 72 81 82 83 76 78 76 76 77 76
78 79 78 73 73 75 74 74 75 75 75 74 75 75 75 75 75 74 73 73 73 74 74 73 72 71 70 70 69 69 69 68 69 76 80 80 82 77 75 76 77 77 76
77 79 74 73 74 75 75 75 74 74 74 74 74 75 75 74 74 73 72 72 73 73 73 72 71 70 69 68 68 68 67 67 71 77 78 77 77 74 74 73 72 73 73
75 77 76 72 74 74 75 74 73 73 73 73 73 73 73 73 72 72 71 72 72 72 72 71 70 69 68 68 67 67 66 66 75 74 77 77 75 73 73 72 71 71 71
73 74 75 73 73 74 74 73 72 72 72 72 72 72 72 71 71 71 71 71 71 70 70 69 68 68 67 67 66 65 64 66 73 74 76 77 72 72 72 71 70 70 70
73 73 73 76 76 72 70 70 70 71 71 71 71 71 70 70 70 70 70 70 69 69 68 68 67 67 66 66 65 64 63 64 72 73 75 77 71 72 72 71 70 69 69
71 72 72 74 76 73 73 69 70 70 70 70 70 69 69 69 69 69 69 69 69 68 67 67 66 66 65 65 63 63 62 65 72 72 75 74 71 72 71 69 68 68 68
69 70 71 71 73 72 75 74 70 70 69 69 69 68 68 72 72 71 69 68 67 67 66 65 65 64 64 63 62 61 64 69 70 72 74 69 70 71 70 69 67 67 67
66 67 70 70 69 71 72 71 70 70 70 69 71 70 69 69 70 71 69 66 66 65 65 64 62 61 63 67 66 63 66 67 69 71 72 68 69 69 69 68 67 67 66
68 67 69 67 68 71 69 68 68 66 66 67 68 67 67 68 69 70 69 68 67 64 66 65 64 65 63 65 65 64 64 66 68 71 68 66 67 68 68 67 67 66 65
65 67 67 67 69 70 68 67 65 64 63 67 67 64 65 65 64 65 65 65 63 64 62 62 62 61 60 61 62 61 62 64 66 67 64 63 65 66 66 66 65 65 64
66 66 65 66 68 67 65 64 62 62 62 68 65 64 65 64 62 63 62 63 63 63 62 61 61 61 59 60 60 61 61 60 61 63 63 60 60 62 64 65 65 64 63
70 67 67 66 67 65 64 62 60 59 60 65 65 63 62 62 61 61 61 62 61 63 62 61 60 59 58 59 58 58 58 59 58 58 60 59 57 59 61 62 62 62 62
72 70 65 65 67 64 63 61 58 58 58 64 63 61 61 60 60 60 61 60 60 59 58 57 56 56 56 57 55 56 56 55 56 56 57 58 58 57 58 58 59 59 59
74 69 67 65 64 63 61 60 58 56 56 59 61 61 60 59 58 59 60 59 59 58 58 58 56 56 55 55 54 55 55 55 53 53 54 56 56 57 55 54 55 55 56
74 72 67 63 62 62 60 60 56 55 54 57 61 61 60 58 58 59 59 57 57 58 57 57 55 55 53 54 54 53 53 52 53 54 52 53 53 55 55 51 51 52 53
74 72 70 63 61 61 60 58 56 55 55 56 57 60 58 59 58 59 58 55 56 55 55 55 53 55 55 54 54 52 52 52 52 52 52 54 54 54 54 53 53 52 50
71 70 69 62 61 60 58 56 54 52 53 53 54 55 56 57 58 58 58 54 55 55 54 53 53 51 51 52 51 49 49 50 49 50 53 54 53 52 52 52 53 52 52
70 69 68 65 61 60 60 60 59 56 53 54 53 53 54 54 56 57 56 54 53 52 51 51 51 50 50 51 52 51 46 46 47 47 50 51 52 53 52 51 51 50 49
68 69 69 66 62 62 61 59 58 55 52 50 51 51 52 53 54 57 54 52 50 52 50 51 52 52 49 48 49 54 48 49 45 49 48 51 51 51 50 48 50 49 48
68 70 71 66 62 61 60 58 53 53 51 56 53 54 51 51 51 54 53 51 50 52 51 50 50 51 52 49 47 48 47 49 51 44 48 48 50 48 48 48 48 47 48
70 68 69 68 62 59 58 58 53 54 56 57 53 50 50 49 50 50 50 48 47 48 50 49 48 49 51 50 49 45 44 49 49 50 45 44 48 45 47 46 46 47 45
69 67 67 67 62 58 58 57 54 54 53 49 49 49 50 47 48 47 48 47 49 49 48 47 47 48 48 48 48 47 50 50 49 48 46 45 46 45 42 43 46 45 45
MSLP
1010.58 1011.07 1011.88 1012.29 1012.65 1013.12 1013.58 1013.99 1014.25 1014.24 1014.44 1014.69 1015.08 1015.16 1015.26 1015.44 1015.65 1015.92 1016.05 1016.29 1016.53 1016.70 1016.83 1017.00 1017.23 1017.52 1017.68 1017.76 1018.03 1017.80 1017.88 1017.78 1017.71 1017.72 1017.63 1017.49 1017.41 1017.41 1017.47 1017.48 1017.37 1017.22 1017.75
1010.22 1010.84 1011.64 1012.26 1012.78 1013.33 1013.77 1014.09 1014.36 1014.48 1014.63 1014.81 1015.03 1015.28 1015.54 1015.64 1015.79 1015.98 1016.19 1016.41 1016.58 1016.83 1017.08 1017.32 1017.50 1017.61 1017.85 1018.07 1018.19 1018.18 1018.20 1018.00 1017.92 1017.81 1017.69 1017.52 1017.51 1017.42 1017.41 1017.54 1017.66 1017.56 1017.87
1010.49 1010.92 1011.53 1012.04 1012.55 1012.99 1013.66 1014.12 1014.36 1014.51 1014.79 1015.05 1015.08 1015.42 1015.57 1015.75 1015.95 1016.10 1016.36 1016.59 1016.79 1016.98 1017.16 1017.41 1017.62 1017.72 1017.96 1018.19 1018.37 1018.48 1018.39 1018.24 1018.13 1017.95 1017.69 1017.21 1017.34 1017.51 1017.31 1017.51 1017.69 1017.80 1018.05
1010.59 1010.83 1011.33 1012.00 1012.44 1012.85 1013.38 1013.94 1014.29 1014.60 1014.83 1015.15 1015.18 1015.26 1015.60 1015.79 1016.10 1016.31 1016.60 1016.93 1017.20 1017.36 1017.54 1017.63 1017.82 1018.03 1018.23 1018.43 1018.52 1018.60 1018.60 1018.51 1018.41 1018.11 1017.47 1017.30 1017.25 1017.43 1016.98 1017.45 1017.71 1017.89 1018.07
1010.87 1010.96 1011.53 1012.29 1012.67 1012.88 1013.46 1013.93 1014.10 1014.45 1014.78 1015.09 1015.36 1015.46 1015.74 1016.05 1016.27 1016.65 1016.97 1017.26 1017.49 1017.64 1017.78 1017.91 1018.07 1018.35 1018.21 1018.53 1018.73 1018.73 1018.81 1018.83 1018.60 1018.10 1017.82 1017.72 1017.52 1017.94 1017.73 1017.65 1017.75 1017.90 1018.03
1011.01 1011.23 1011.53 1011.94 1012.59 1012.98 1013.36 1013.85 1014.11 1014.40 1014.83 1015.14 1015.49 1015.58 1015.76 1016.23 1016.56 1016.74 1017.15 1017.46 1017.71 1017.95 1018.05 1018.12 1018.20 1018.48 1018.40 1018.36 1018.69 1018.88 1019.00 1019.02 1018.58 1018.42 1018.36 1018.40 1018.37 1018.42 1018.25 1018.19 1018.23 1018.30 1018.41
1011.16 1011.41 1011.72 1012.03 1012.27 1012.67 1013.00 1013.55 1013.95 1014.41 1014.79 1015.05 1015.54 1015.69 1016.03 1016.18 1016.47 1016.82 1017.16 1017.67 1018.03 1018.19 1018.39 1018.45 1018.61 1018.67 1018.90 1018.73 1018.71 1019.05 1019.10 1019.08 1018.81 1018.98 1018.76 1018.68 1018.96 1018.85 1018.81 1018.85 1018.95 1018.99 1019.03
1011.39 1011.70 1011.89 1012.20 1012.32 1012.80 1013.11 1013.45 1013.78 1014.14 1014.60 1014.87 1015.42 1015.82 1016.12 1016.39 1016.66 1016.94 1017.18 1017.50 1018.04 1018.53 1018.82 1018.88 1018.95 1019.05 1019.18 1019.27 1019.07 1019.10 1019.25 1019.25 1019.13 1019.24 1019.21 1019.19 1019.60 1019.31 1019.31 1019.38 1019.51 1019.60 1019.66
1011.46 1011.69 1011.80 1012.12 1012.51 1012.96 1013.44 1013.75 1013.98 1014.13 1014.37 1014.83 1015.44 1015.91 1016.43 1016.69 1016.99 1017.16 1017.43 1017.63 1017.96 1018.31 1018.80 1019.10 1019.24 1019.54 1019.66 1019.76 1019.86 1019.70 1019.48 1019.49 1019.35 1019.49 1019.39 1019.47 1020.08 1019.83 1019.77 1019.85 1019.98 1020.16 1020.16
1011.73 1011.85 1011.85 1012.02 1012.16 1012.71 1013.44 1013.88 1014.06 1014.45 1014.71 1014.98 1015.39 1016.07 1016.52 1016.89 1016.97 1017.24 1017.36 1017.72 1018.10 1018.41 1018.64 1018.99 1019.09 1019.48 1020.02 1020.17 1020.25 1020.31 1020.20 1019.93 1019.46 1019.65 1019.66 1019.98 1020.21 1020.11 1020.18 1020.34 1020.47 1020.47 1020.49
1011.64 1011.84 1011.88 1012.15 1012.23 1012.68 1013.02 1013.71 1014.10 1014.39 1014.92 1015.26 1015.60 1016.11 1016.54 1016.54 1016.92 1017.21 1017.34 1017.80 1018.26 1018.75 1018.92 1019.09 1019.38 1019.50 1019.86 1020.27 1020.67 1020.65 1020.52 1020.38 1020.19 1019.96 1019.88 1020.30 1020.27 1020.35 1020.62 1020.76 1020.85 1020.95 1021.09
1010.95 1011.27 1011.59 1011.97 1012.22 1012.64 1013.02 1013.66 1014.25 1014.62 1015.02 1015.38 1015.71 1016.23 1016.61 1016.67 1016.91 1017.01 1017.53 1018.00 1018.26 1018.80 1019.34 1019.54 1019.80 1020.09 1020.10 1020.15 1020.51 1020.87 1020.78 1020.96 1020.82 1020.52 1020.62 1020.59 1020.54 1020.82 1020.97 1021.12 1021.23 1021.39 1021.53
1011.03 1011.21 1011.13 1011.56 1011.93 1012.25 1012.69 1013.32 1014.03 1014.58 1015.10 1015.63 1015.98 1016.46 1016.93 1017.24 1017.33 1017.46 1017.79 1018.06 1018.44 1018.86 1019.16 1019.69 1019.80 1019.99 1020.36 1020.46 1020.68 1020.71 1021.11 1021.10 1021.16 1021.03 1021.21 1021.09 1021.29 1021.28 1021.50 1021.63 1021.69 1021.69 1021.85
1010.28 1010.73 1011.17 1011.50 1011.54 1011.83 1012.16 1012.92 1013.73 1014.28 1014.81 1015.42 1016.11 1016.75 1017.00 1017.30 1017.73 1017.88 1018.06 1018.43 1018.56 1018.84 1019.29 1019.62 1020.06 1020.40 1020.63 1020.88 1021.05 1021.30 1021.28 1021.34 1021.40 1021.74 1022.16 1022.07 1022.06 1022.12 1022.10 1022.16 1022.20 1022.21 1022.23
1009.31 1009.86 1010.41 1011.12 1011.46 1011.80 1012.19 1012.66 1013.49 1014.33 1014.89 1015.13 1015.84 1016.53 1016.92 1017.37 1018.02 1018.27 1018.35 1018.66 1018.74 1019.00 1019.28 1019.73 1020.28 1020.48 1020.76 1021.17 1021.35 1021.51 1021.77 1021.96 1022.13 1022.27 1022.97 1023.39 1023.25 1023.00 1022.73 1022.58 1022.53 1022.63 1022.57
1007.85 1008.52 1009.49 1010.24 1010.85 1011.38 1011.94 1012.49 1013.33 1014.19 1014.62 1015.12 1015.79 1016.25 1016.66 1016.89 1017.69 1018.16 1018.52 1018.77 1019.13 1019.05 1019.45 1019.74 1020.25 1020.73 1021.08 1021.40 1021.77 1022.15 1022.42 1022.67 1022.91 1023.23 1023.57 1024.04 1024.06 1023.76 1023.41 1023.09 1023.09 1023.05 1022.92
1006.76 1007.81 1008.59 1009.44 1010.18 1010.82 1011.28 1011.96 1012.66 1013.52 1014.31 1014.85 1015.56 1016.22 1016.49 1016.95 1017.50 1018.01 1018.18 1018.74 1019.07 1019.44 1019.87 1020.06 1020.53 1020.96 1021.32 1021.83 1022.21 1022.67 1023.06 1023.54 1023.82 1024.00 1024.13 1024.36 1024.46 1024.18 1024.00 1023.93 1023.75 1023.64 1023.51
1006.01 1006.52 1007.62 1008.57 1009.30 1010.10 1010.73 1011.48 1012.24 1013.14 1013.94 1014.73 1015.27 1015.82 1016.44 1017.05 1017.68 1018.10 1018.29 1018.67 1019.05 1019.35 1019.60 1019.91 1020.28 1020.87 1021.64 1021.98 1022.41 1022.99 1023.46 1023.90 1024.36 1024.60 1024.68 1024.56 1024.65 1024.58 1024.68 1024.67 1024.47 1024.34 1024.13
1005.01 1005.84 1006.83 1007.81 1008.59 1009.33 1010.21 1011.02 1011.77 1012.55 1013.37 1014.31 1014.73 1015.23 1015.94 1016.58 1017.36 1017.77 1018.11 1018.55 1019.06 1019.23 1019.33 1019.84 1020.29 1020.60 1021.36 1022.14 1022.65 1023.33 1023.99 1024.37 1024.58 1024.70 1024.84 1024.89 1024.97 1024.94 1025.10 1025.51 1025.26 1025.07 1024.84
1004.44 1004.86 1005.46 1006.65 1007.70 1008.55 1009.41 1010.28 1011.34 1012.13 1012.76 1013.49 1014.11 1014.61 1015.41 1016.05 1016.87 1017.42 1017.87 1018.35 1018.61 1019.61 1019.44 1019.75 1020.32 1020.92 1021.21 1021.92 1022.61 1023.46 1024.32 1024.81 1024.97 1024.94 1025.00 1025.01 1025.08 1025.16 1025.36 1025.50 1025.45 1025.43 1025.43
1004.05 1004.46 1004.76 1005.53 1006.36 1007.57 1008.29 1009.01 1010.14 1010.73 1011.81 1012.92 1013.43 1014.20 1014.81 1015.39 1016.28 1016.83 1017.61 1018.19 1018.52 1018.69 1019.51 1019.88 1020.34 1020.82 1021.61 1022.07 1022.39 1023.71 1024.51 1024.97 1025.19 1025.34 1025.16 1025.09 1025.24 1025.43 1025.67 1025.78 1025.71 1025.68 1025.49
1002.54 1003.29 1004.16 1004.66 1005.23 1006.17 1007.29 1007.78 1008.62 1009.89 1011.35 1012.25 1013.18 1013.99 1014.47 1015.00 1015.53 1016.33 1017.13 1017.68 1018.08 1018.89 1018.88 1019.83 1020.23 1020.57 1021.29 1021.76 1021.65 1022.33 1023.64 1024.97 1025.20 1025.51 1025.64 1025.36 1025.42 1025.34 1025.69 1026.00 1026.14 1026.23 1025.91
1002.37 1002.36 1002.51 1003.33 1004.38 1005.26 1006.38 1007.55 1008.36 1009.88 1011.14 1012.05 1012.72 1013.41 1014.05 1014.73 1015.29 1015.58 1016.66 1017.30 1018.03 1018.68 1018.86 1019.04 1019.67 1019.99 1020.36 1021.57 1021.65 1021.30 1022.48 1023.06 1024.47 1025.30 1025.57 1025.43 1025.50 1025.53 1025.93 1026.22 1026.15 1026.33 1026.05
1001.66 1001.57 1002.21 1002.80 1003.63 1004.46 1005.66 1006.63 1007.05 1007.55 1009.02 1009.95 1011.46 1012.65 1013.69 1014.36 1014.91 1015.36 1016.21 1016.96 1017.86 1017.54 1018.78 1019.00 1019.43 1019.81 1019.88 1020.31 1021.64 1021.92 1022.17 1022.56 1022.80 1024.28 1025.21 1025.54 1025.68 1025.84 1026.09 1026.31 1026.34 1026.34 1026.26
1001.30 1001.54 1001.38 1002.72 1003.54 1004.25 1004.42 1005.50 1006.63 1007.14 1007.94 1009.10 1010.74 1012.00 1012.96 1013.84 1014.45 1015.04 1015.70 1016.50 1016.97 1018.02 1018.10 1018.93 1019.36 1019.56 1020.01 1020.06 1020.60 1021.66 1022.12 1022.53 1022.69 1022.64 1023.60 1024.90 1025.63 1026.24 1026.41 1026.74 1026.72 1026.47 1026.70
1000.97 1001.04 1001.09 1001.27 1002.40 1003.42 1003.95 1004.32 1005.40 1006.17 1006.78 1008.14 1009.61 1010.96 1012.11 1013.16 1014.18 1015.13 1015.69 1016.28 1017.09 1017.07 1018.20 1018.72 1019.43 1019.49 1020.13 1020.26 1020.64 1021.20 1021.43 1021.64 1022.04 1022.28 1023.13 1024.29 1024.78 1025.91 1026.55 1026.93 1026.79 1026.85 1027.10
Wind_Speed
11 19 19 18 17 17 14 12 12 14 16 17 17 17 17 16 15 14 14 13 11 13 13 12 12 12 11 11 10 10 9 9 9 9 8 8 7 5 4 5 4 6 6
14 19 20 21 20 17 16 15 14 14 16 17 17 16 16 15 14 13 12 13 14 13 13 12 12 12 12 12 10 10 9 10 9 9 8 7 7 6 4 3 2 5 5
16 17 19 21 21 20 19 17 16 17 16 16 17 16 15 15 14 15 14 13 13 13 13 12 12 13 13 12 11 10 10 9 9 8 6 5 6 5 5 4 4 7 5
15 16 17 21 21 20 20 19 18 20 19 17 17 18 17 16 14 13 12 12 12 12 12 13 13 13 13 12 12 12 12 11 11 6 7 7 8 14 9 8 5 5 4
15 15 16 18 18 20 19 19 20 19 19 18 17 17 17 16 16 15 13 13 12 13 13 13 14 13 15 13 13 13 13 13 11 8 11 9 9 14 17 8 6 4 3
15 14 16 21 20 21 21 19 18 17 18 17 16 17 18 17 17 16 14 14 13 13 13 14 15 14 15 15 14 14 13 12 9 11 10 12 13 17 20 21 20 18 16
14 13 17 19 22 20 20 19 17 17 16 15 15 16 16 17 17 17 16 14 13 13 13 15 15 15 13 14 14 13 12 12 9 9 10 11 12 17 18 20 21 21 20
13 12 14 16 17 17 17 18 18 18 17 16 15 15 17 17 17 17 17 16 15 13 13 13 14 14 13 13 14 14 14 10 9 9 9 9 12 16 18 19 20 20 20
11 12 11 15 15 12 12 14 15 16 17 15 15 15 15 15 15 17 17 17 17 16 14 14 14 14 14 14 14 14 15 13 10 7 8 7 12 15 17 20 21 20 21
9 10 9 11 15 11 12 12 12 13 15 15 16 14 15 15 16 16 16 17 16 16 16 16 16 16 14 14 14 13 13 12 11 9 8 8 13 17 20 20 20 20 20
9 9 9 10 13 12 14 14 13 17 14 15 15 15 14 11 13 15 13 16 16 15 15 16 15 16 16 15 13 12 9 6 8 7 7 10 15 18 18 18 19 19 19
15 13 12 11 11 13 11 11 9 10 8 8 11 13 9 11 11 11 14 16 17 16 15 15 15 14 10 6 7 8 6 8 7 8 7 8 19 17 16 17 17 18 17
12 11 14 11 12 15 10 7 5 5 6 7 12 11 9 7 9 8 8 8 9 12 8 9 9 6 8 6 6 7 8 7 6 7 10 18 17 16 16 15 15 16 17
14 14 13 12 14 14 9 8 7 7 7 8 9 11 9 6 8 7 6 7 7 6 9 7 6 8 9 9 9 9 9 8 7 8 13 18 16 15 14 14 15 16 17
17 16 16 14 15 10 10 8 7 7 6 10 10 11 9 8 6 6 6 6 6 7 7 7 7 7 9 9 9 10 11 11 11 7 8 16 15 14 14 14 14 15 16
20 20 17 16 15 13 10 11 8 6 8 10 9 10 11 9 8 7 7 6 6 7 7 7 7 7 8 9 10 11 11 10 11 10 7 10 15 15 14 16 15 15 15
20 16 18 17 17 15 13 12 9 8 8 10 9 11 11 10 10 9 8 7 7 7 9 9 9 8 9 9 11 10 10 10 9 9 7 6 8 16 17 16 16 17 16
20 20 18 14 16 16 13 10 8 8 8 8 9 9 12 10 10 9 8 7 8 8 8 8 8 9 8 8 9 8 8 8 9 8 7 6 7 6 13 17 17 17 17
22 21 19 18 17 17 13 10 10 11 9 8 10 10 13 12 12 9 8 8 9 7 8 8 8 8 10 9 10 9 8 7 7 7 9 10 10 9 7 14 15 17 16
21 20 21 17 18 17 12 11 9 9 9 9 9 11 15 11 13 11 9 10 10 6 7 8 10 8 10 10 10 10 8 7 6 7 8 7 9 9 9 9 7 8 16
18 20 21 21 20 15 13 13 11 13 10 9 8 12 13 13 14 12 9 10 8 10 8 10 11 13 9 11 9 8 7 7 7 6 5 6 7 8 8 9 7 6 6
21 21 20 22 22 19 14 12 9 12 8 9 8 10 11 13 15 13 12 11 11 8 12 11 12 8 5 7 4 5 5 4 5 5 4 5 6 6 7 8 9 10 8
19 21 24 23 20 19 16 11 7 9 7 7 10 9 10 12 12 15 13 9 9 8 8 11 9 7 8 5 4 2 5 3 6 3 5 4 5 6 6 7 8 9 10
19 19 20 17 19 18 19 16 20 16 14 10 11 9 10 12 13 14 14 11 10 10 10 8 7 5 7 8 4 2 2 3 4 6 4 4 4 5 6 6 6 8 9
16 17 18 18 16 18 20 19 15 16 12 11 11 15 13 11 11 12 13 11 9 6 9 8 9 8 4 7 5 4 3 3 2 2 5 6 4 4 5 5 6 6 8
13 15 17 19 18 19 20 22 22 21 18 15 15 13 12 10 9 10 10 9 10 12 10 9 8 9 6 7 5 4 3 3 4 4 4 5 5 5 4 4 5 6 6
Wind_Direction
171 156 151 157 153 153 152 149 139 131 129 129 129 128 128 126 123 125 123 124 119 110 105 91 89 88 84 78 76 75 71 62 53 49 54 62 67 75 87 99 75 89 107
152 156 149 154 151 150 150 148 145 136 133 132 130 129 129 129 132 133 126 120 115 120 114 107 102 94 86 77 72 65 61 61 61 58 53 76 62 47 73 140 121 103 109
151 150 149 154 154 149 150 150 147 141 137 134 133 132 132 127 121 116 114 107 107 110 111 102 95 92 89 84 73 61 55 60 67 73 69 74 63 13 273 172 137 136 145
151 153 152 157 154 150 150 151 148 149 142 141 141 139 140 133 123 111 102 104 111 115 117 111 106 100 93 82 72 64 57 62 60 56 73 74 64 37 87 142 138 134 132
157 154 152 156 151 151 150 151 154 153 151 144 145 146 144 141 136 132 125 126 127 127 121 114 107 103 97 84 77 69 68 68 64 63 59 55 56 51 59 69 121 89 86
160 163 154 159 161 160 160 162 158 152 152 146 151 151 148 146 141 137 135 134 131 127 122 115 109 105 101 96 83 78 74 67 65 66 64 61 59 58 59 60 62 63 60
165 166 166 165 165 166 164 164 153 150 152 148 153 150 148 145 143 140 135 130 126 122 117 111 107 104 100 97 94 88 82 73 72 67 67 66 62 63 65 65 63 62 62
168 169 168 166 168 168 164 157 154 154 157 147 149 147 148 148 144 139 135 131 125 118 112 108 104 101 98 94 95 93 88 85 89 78 68 67 63 69 69 68 65 63 61
174 174 171 175 171 159 152 152 156 155 149 144 141 146 150 145 141 139 137 132 128 124 118 110 102 95 92 88 84 87 92 91 87 79 79 75 68 73 73 73 70 66 60
170 181 177 177 174 164 161 155 164 145 139 141 143 150 148 147 143 141 137 133 128 124 120 115 109 102 93 88 86 81 83 86 89 87 74 78 80 80 78 68 64 60 57
183 187 181 181 175 166 172 169 152 145 144 144 149 153 154 155 152 144 133 133 126 122 118 116 109 106 102 91 81 83 80 75 83 85 86 86 91 82 72 70 63 59 54
190 185 183 183 177 175 170 167 160 154 154 154 164 165 166 156 153 149 136 130 128 123 116 111 106 105 108 103 99 81 78 87 79 79 83 79 82 82 74 66 63 60 57
200 196 185 174 178 177 165 151 159 146 150 158 169 166 157 152 150 147 141 138 131 126 124 119 117 99 96 99 94 97 97 94 87 86 64 75 79 71 69 68 66 59 54
195 198 190 187 186 190 158 165 160 160 158 172 174 165 159 157 157 153 149 146 140 137 130 125 112 106 102 97 99 96 96 96 90 82 60 63 67 68 69 63 59 59 56
200 195 193 188 195 183 174 160 158 162 164 177 169 168 165 158 162 155 146 150 141 138 133 125 119 114 107 101 98 102 97 92 89 84 81 65 61 62 64 63 59 56 51
204 202 191 191 191 180 180 166 161 162 160 179 175 172 169 164 162 160 153 149 144 140 134 127 123 115 104 104 97 94 89 86 83 85 87 74 65 63 63 63 58 51 46
211 198 196 194 190 186 182 169 165 168 159 180 176 175 173 170 172 166 156 156 149 135 127 121 114 112 111 107 100 94 90 81 77 77 80 84 81 67 65 60 56 53 48
212 202 194 189 189 186 181 174 163 159 157 176 177 173 179 174 170 167 161 159 152 148 140 133 131 123 118 117 111 100 95 89 85 84 82 84 84 77 66 59 56 51 45
216 204 194 188 192 186 176 173 163 160 164 172 179 177 175 171 174 176 167 154 158 157 146 141 133 133 131 124 112 102 91 83 83 87 86 83 81 76 71 62 53 48 44
218 206 198 187 188 185 173 163 162 170 172 172 177 181 172 173 174 175 169 159 155 162 150 142 137 133 130 128 115 102 89 79 78 81 88 89 87 78 70 56 51 55 40
219 208 201 190 188 181 179 174 174 181 172 175 172 172 170 172 175 173 169 162 167 158 155 144 138 135 123 136 122 107 90 79 73 74 85 93 92 86 72 59 47 33 36
213 208 204 202 188 187 191 189 179 170 179 167 166 172 173 172 172 173 172 171 164 162 148 157 158 147 122 168 136 131 150 136 90 80 91 96 97 95 78 63 51 41 37
219 211 208 202 193 190 189 176 154 147 134 156 181 173 173 170 173 172 171 164 162 160 168 161 165 171 151 175 203 133 147 164 145 139 104 99 108 93 82 64 57 45 38
225 223 219 198 194 189 180 183 175 174 173 188 176 165 164 169 169 172 170 164 173 154 175 167 166 167 159 159 152 148 85 110 173 160 148 115 101 94 74 60 46 49 36
243 226 216 209 197 189 184 189 182 184 182 163 163 162 165 166 167 166 163 156 146 161 151 160 163 165 169 149 141 150 130 146 131 158 150 152 122 103 65 58 47 43 44
265 231 215 206 198 191 192 189 187 187 171 162 164 167 170 162 157 162 159 155 160 147 151 146 149 148 157 143 139 143 165 164 168 161 124 143 138 131 109 78 45 49 50